[[{"header":{"parameterUnit":"m.s-1","parameterCategory":2,"la1":30.2991,"la2":30.254,"lo1":-89.0895,"lo2":-89.0444,"dy":0.0017,"dx":0.0017,"nx":28,"ny":28,"refTime":"2025-08-02T21:00:00:Z","depth":"0","parameterNumber":2,"parameterNumberName":"U-component_of_CURRENTS"},"data":[0,0,0,0,0,0,0,0,0,0,0,0,0,0,0,0,0,0,0,0,0,0,0,0,0,0,0,0,0,0,0,0,0,0,0,0,0,0,0,0,0,0,0,0,0,0,0,0,0,0,0,0,0,0,0,0,0,0,0.4827,0.4828,0,0.4869,0.4868,0.4867,0.4685,0.4681,0.4677,0.4673,0.471,0.4714,0.4719,0,0,0,0,0,0,0,0,0,0,0,0,0,0.4639,0.4642,0.4827,0.4829,0.483,0.4869,0.4868,0.4867,0.4686,0.4681,0.4676,0.4671,0.4708,0.4714,0.472,0,0,0,0,0,0,0,0,0,0,0,0,0,0.4691,0.4643,0.4826,0.4755,0.475,0.4869,0.4868,0.4867,0.4687,0.4681,0.4675,0.4669,0.4706,0.4713,0.472,0.4887,0,0,0.4742,0.4745,0,0,0,0,0,0,0,0,0.4689,0.4697,0.4763,0.476,0.4755,0.4778,0.4816,0.4878,0.4689,0.4696,0.4673,0.4666,0.4746,0.4749,0.4751,0.4889,0.489,0.4743,0.4747,0.475,0.4752,0,0,0,0,0,0,0,0.4685,0.4694,0.4829,0.4766,0.4761,0.4738,0.4737,0.4826,0.4744,0.4695,0.4685,0.4714,0.474,0.4745,0.4751,0.4891,0.4743,0.4749,0.4753,0.4756,0.5241,0.525,0,0,0,0,0,0,0.4713,0.4692,0.4828,0.4832,0.4721,0.4747,0.4745,0.4765,0.4743,0.4738,0.4719,0.4706,0.4735,0.4743,0.4752,0.5001,0.475,0.4757,0.4761,0.5233,0.5243,0.5253,0,0,0,0,0,0,0.4709,0.4725,0.4827,0.4773,0.4786,0.4758,0.4781,0.477,0.4776,0.4764,0.4754,0.4739,0.4731,0.4742,0.4849,0.4998,0.476,0.4767,0.5223,0.5236,0.5248,0.5466,0,0,0,0,0,0,0.4703,0.4722,0.4771,0.4776,0.4791,0.4963,0.4789,0.4775,0.481,0.4792,0.4781,0.4775,0.4727,0.4839,0.4857,0.5004,0.4772,0.5212,0.5229,0.5244,0.5448,0.5485,0.5516,0,0,0,0,0,0.4696,0.4825,0.4773,0.4791,0.485,0.4972,0.498,0.4926,0.4818,0.4891,0.4843,0.4775,0.4954,0.4852,0.487,0.5022,0.5204,0.5224,0.5243,0.5433,0.5478,0.5515,0,0,0,0,0,0,0.4782,0.482,0.4762,0.4893,0.4946,0.4946,0.5028,0.4965,0.4983,0.4959,0.4871,0.4872,0.5031,0.5021,0.4908,0.522,0.5079,0.5103,0.5218,0.526,0.5293,0.5219,0.4778,0,0,0,0,0,0.4825,0.4905,0.4936,0.5038,0.5079,0.5046,0.5088,0.5061,0.5073,0.5068,0.5051,0.5068,0.5139,0.518,0.5248,0.5421,0.5356,0.5543,0.5577,0.5605,0.5567,0.5582,0.561,0.5316,0.5316,0.5316,0,0,0.4884,0.4917,0.4961,0.5061,0.5079,0.5179,0.5054,0.5168,0.523,0.5087,0.5182,0.5197,0.5214,0.5385,0.546,0.5383,0.5683,0.563,0.5653,0.5597,0.5605,0.5631,0.5655,0.5329,0.5327,0.5325,0,0,0.5055,0.5076,0.5195,0.5255,0.5338,0.5336,0.5378,0.5416,0.5418,0.5534,0.5445,0.5522,0.564,0.5661,0.5686,0.5969,0.5864,0.604,0.6147,0.6167,0.6187,0.6204,0.6239,0.6257,0.6054,0.6054,0.6055,0,0.5104,0.5233,0.5261,0.5383,0.5423,0.5407,0.5515,0.5575,0.5634,0.564,0.5605,0.5718,0.5761,0.5888,0.5991,0.6039,0.602,0.5973,0.6199,0.6214,0.6227,0.6258,0.6274,0.6067,0.6066,0.6064,0.6063,0,0.5347,0.5435,0.553,0.5626,0.5702,0.582,0.5873,0.5948,0.5927,0.593,0.6052,0.6088,0.6106,0.6212,0.6185,0.6344,0.6296,0.6232,0.6061,0.6267,0.6292,0.6305,0.6086,0.6081,0.6077,0.6074,0,0,0.5419,0.5641,0.5656,0.5681,0.5817,0.5875,0.6033,0.6116,0.6125,0.6244,0.6246,0.6442,0.6382,0.6409,0.6417,0.6471,0.6617,0.6406,0.6401,0.6383,0.6669,0.6564,0.6566,0.6572,0.6574,0.6575,0.6673,0,0.5549,0.5773,0.5858,0.5999,0.6081,0.6105,0.6206,0.6281,0.6316,0.635,0.6412,0.6453,0.6488,0.6479,0.6559,0.6568,0.6649,0.6596,0.6519,0.6517,0.6347,0.6576,0.6215,0.6263,0.6685,0.6687,0.6688,0,0.5694,0.5812,0.5988,0.6066,0.6099,0.6178,0.6208,0.6309,0.6392,0.6412,0.6467,0.647,0.6594,0.6561,0.6695,0.665,0.6687,0.6708,0.671,0.6513,0.6433,0.6117,0.6268,0.6084,0.6706,0.6705,0.6703,0,0.5625,0.5847,0.5953,0.6001,0.6148,0.6175,0.6221,0.6301,0.6335,0.6414,0.6413,0.6529,0.6543,0.663,0.6715,0.6696,0.6817,0.6778,0.6734,0.6728,0.6349,0.6305,0.6237,0.687,0.687,0.687,0.687,0,0.5664,0.5736,0.5916,0.5963,0.6022,0.6113,0.6139,0.6209,0.6266,0.6302,0.6403,0.644,0.6553,0.6633,0.672,0.6773,0.6828,0.6774,0.6749,0.6433,0.6397,0.6155,0.6113,0.6874,0.6873,0.6872,0.6871,0,0.5584,0.5715,0.5818,0.5965,0.5993,0.6015,0.6078,0.6094,0.6167,0.6207,0.6228,0.6367,0.6493,0.661,0.6738,0.6743,0.6618,0.6822,0.6462,0.6392,0.6148,0.6133,0.5882,0.5728,0.678,0.6778,0.6776,0,0.5602,0.5648,0.5784,0.5803,0.5868,0.5912,0.5934,0.6028,0.605,0.6175,0.6188,0.6317,0.6402,0.6553,0.6568,0.6663,0.6545,0.6384,0.6291,0.6106,0.6072,0.5922,0.58,0.5921,0.5912,0.5905,0.59,0,0.5586,0.5604,0.5669,0.5721,0.5745,0.5778,0.582,0.5824,0.5935,0.5971,0.605,0.6119,0.6253,0.6157,0.6253,0.6285,0.6031,0.6245,0.611,0.5452,0.5217,0.5061,0.5927,0.5837,0.5844,0.5848,0.5852,0.5854,0.5532,0.5547,0.5585,0.562,0.564,0.5624,0.5567,0.5617,0.5618,0.5591,0.5816,0.5741,0.5746,0.5816,0.5849,0.5551,0.5663,0.534,0.5366,0.5255,0.4991,0.5757,0.56,0.5604,0.5609,0.5612,0.5615,0,0.5457,0.5458,0.5482,0.5478,0.5439,0.5491,0.5468,0.5359,0.5293,0.5287,0.5296,0.5088,0.4991,0.5004,0.483,0.4663,0.4496,0.4526,0.4191,0.4143,0.4838,0.4682,0.4243,0.4243,0.4243,0.4244,0.4244,0.4244,0.5394,0.5365,0.5382,0.5285,0.5265,0.5118,0.506,0.4908,0.482,0.4502,0.4255,0.4236,0.4307,0.4279,0.4072,0.3987,0.3747,0.3515,0.3657,0.4101,0.4176,0.4248,0.4089,0.3533,0.3532,0.2689,0.2683,0.2678]},{"header":{"parameterUnit":"m.s-1","parameterCategory":2,"la1":30.2991,"la2":30.254,"lo1":-89.0895,"lo2":-89.0444,"dy":0.0017,"dx":0.0017,"nx":28,"ny":28,"refTime":"2025-08-02T21:00:00:Z","depth":"0","parameterNumber":3,"parameterNumberName":"V-component_of_CURRENTS"},"data":[0,0,0,0,0,0,0,0,0,0,0,0,0,0,0,0,0,0,0,0,0,0,0,0,0,0,0,0,0,0,0,0,0,0,0,0,0,0,0,0,0,0,0,0,0,0,0,0,0,0,0,0,0,0,0,0,0,0,-0.0094,-0.0095,0,-0.014,-0.014,-0.0141,-0.0167,-0.0167,-0.0167,-0.0167,-0.0265,-0.0268,-0.027,0,0,0,0,0,0,0,0,0,0,0,0,0,-0.0032,-0.0033,-0.0094,-0.0095,-0.0095,-0.014,-0.014,-0.0141,-0.0167,-0.0167,-0.0167,-0.0167,-0.0264,-0.0267,-0.027,0,0,0,0,0,0,0,0,0,0,0,0,0,-0.0066,-0.0033,-0.0094,-0.0114,-0.0116,-0.014,-0.014,-0.0141,-0.0167,-0.0167,-0.0167,-0.0167,-0.0263,-0.0267,-0.0271,-0.0291,0,0,-0.0282,-0.0284,0,0,0,0,0,0,0,0,-0.0064,-0.0068,-0.011,-0.0112,-0.0115,-0.0148,-0.0154,-0.0194,-0.0167,-0.0147,-0.0167,-0.0167,-0.0231,-0.0237,-0.0245,-0.0296,-0.03,-0.0283,-0.0285,-0.0287,-0.0288,0,0,0,0,0,0,0,-0.0062,-0.0067,-0.0112,-0.0111,-0.0114,-0.0121,-0.0126,-0.0162,-0.0189,-0.0149,-0.0151,-0.0156,-0.0232,-0.0241,-0.0247,-0.0302,-0.0283,-0.0286,-0.0288,-0.029,-0.0366,-0.0366,0,0,0,0,0,0,-0.0056,-0.0064,-0.0111,-0.0114,-0.0089,-0.0122,-0.0127,-0.0137,-0.0187,-0.0194,-0.0156,-0.0157,-0.0234,-0.0243,-0.0251,-0.0261,-0.0287,-0.029,-0.0292,-0.0367,-0.0366,-0.0366,0,0,0,0,0,0,-0.0055,-0.006,-0.0109,-0.009,-0.0096,-0.0123,-0.0133,-0.0138,-0.0145,-0.0192,-0.02,-0.0158,-0.0235,-0.0246,-0.0277,-0.0266,-0.0292,-0.0295,-0.0367,-0.0366,-0.0366,-0.0293,0,0,0,0,0,0,-0.0053,-0.0059,-0.0066,-0.0089,-0.0097,-0.0121,-0.0133,-0.0139,-0.0148,-0.015,-0.0196,-0.0206,-0.0236,-0.0271,-0.028,-0.0272,-0.0298,-0.0367,-0.0367,-0.0366,-0.0296,-0.0291,-0.0286,0,0,0,0,0,-0.005,-0.0066,-0.0066,-0.0072,-0.0106,-0.0121,-0.0125,-0.0144,-0.0148,-0.0151,-0.0178,-0.0204,-0.0275,-0.0273,-0.0285,-0.0277,-0.0367,-0.0367,-0.0366,-0.0298,-0.0292,-0.0286,0,0,0,0,0,0,-0.0052,-0.0071,-0.0072,-0.0094,-0.0102,-0.0125,-0.0135,-0.014,-0.0163,-0.0164,-0.0205,-0.0216,-0.0239,-0.027,-0.0268,-0.0298,-0.0324,-0.0326,-0.0269,-0.0263,-0.0258,-0.0217,-0.0301,0,0,0,0,0,-0.0052,-0.0065,-0.0077,-0.0095,-0.0097,-0.0111,-0.012,-0.0125,-0.0147,-0.0157,-0.0189,-0.0221,-0.0246,-0.0263,-0.0295,-0.0315,-0.0306,-0.0317,-0.0312,-0.0307,-0.0282,-0.0253,-0.0241,-0.0364,-0.0364,-0.0364,0,0,-0.0059,-0.0071,-0.0079,-0.0095,-0.0103,-0.0093,-0.0117,-0.0125,-0.0114,-0.0165,-0.0174,-0.0208,-0.0248,-0.0265,-0.0278,-0.029,-0.027,-0.0307,-0.0302,-0.0279,-0.0251,-0.0238,-0.0227,-0.0364,-0.0364,-0.0364,0,0,-0.0064,-0.0084,-0.0083,-0.0082,-0.0085,-0.009,-0.0087,-0.0102,-0.0108,-0.0119,-0.0147,-0.0162,-0.0219,-0.0227,-0.0242,-0.0228,-0.0244,-0.0255,-0.0195,-0.0167,-0.0155,-0.0145,-0.0119,-0.0108,-0.0251,-0.0251,-0.0251,0,-0.0063,-0.0063,-0.0086,-0.0072,-0.0064,-0.0081,-0.0059,-0.0067,-0.009,-0.0086,-0.0114,-0.0151,-0.0189,-0.018,-0.0178,-0.0212,-0.0203,-0.0214,-0.0156,-0.0146,-0.0137,-0.0113,-0.0101,-0.0247,-0.0248,-0.0248,-0.0248,0,-0.0051,-0.0045,-0.0045,-0.0025,-0.0025,-0.0013,-0.0015,-0.0016,-0.0027,-0.003,-0.0032,-0.0075,-0.0089,-0.0111,-0.0143,-0.0103,-0.012,-0.0151,-0.0163,-0.0119,-0.0098,-0.0087,-0.0242,-0.0243,-0.0245,-0.0245,0,0,-0.004,-0.0034,-0.0026,-0.0001,0.0008,0.0017,0.0031,0.0049,0.0078,0.0047,0.0083,0.004,0.0024,0.0008,-0.0031,-0.0011,0.0051,-0.0051,-0.0052,-0.0009,0.0116,0.0112,0.0124,0.0028,0.003,0.0032,0.0105,0,-0.0007,0.003,0.0023,0.0071,0.0097,0.0092,0.0112,0.0123,0.0122,0.0146,0.0122,0.013,0.0066,0.0066,0.0077,0.0059,0.0085,0.0035,0.0054,0.0055,0.006,0.0138,0.0127,0.0192,0.0117,0.0118,0.012,0,0.0039,0.0052,0.0103,0.0138,0.015,0.0171,0.0216,0.023,0.0252,0.025,0.0258,0.0242,0.0264,0.0201,0.0223,0.0191,0.0167,0.0152,0.0153,0.0139,0.0074,0.0134,0.0215,-0.0012,0.0137,0.0136,0.0135,0,0.0089,0.0125,0.0168,0.0182,0.0209,0.0228,0.0239,0.0264,0.0297,0.0325,0.0367,0.0365,0.0395,0.0365,0.0332,0.0281,0.0366,0.0286,0.0265,0.0264,0.0256,0.025,0.0138,0.032,0.032,0.032,0.032,0,0.0147,0.0181,0.0195,0.0219,0.0276,0.0271,0.0335,0.0343,0.0384,0.0472,0.0427,0.0519,0.0442,0.0474,0.0401,0.0394,0.0424,0.0313,0.0298,0.0278,0.0273,0.0074,-0.0062,0.0323,0.0322,0.0321,0.0321,0,0.0194,0.0208,0.0259,0.0287,0.0303,0.0339,0.039,0.0445,0.0466,0.0585,0.0608,0.0658,0.0723,0.065,0.0635,0.0513,0.037,0.0465,0.0447,0.0429,0.0157,0.0027,-0.0047,-0.0132,0.0444,0.0445,0.0445,0,0.0216,0.0249,0.0308,0.035,0.0361,0.041,0.0462,0.0482,0.0558,0.0706,0.0792,0.0883,0.1029,0.0982,0.0793,0.0685,0.0459,0.0522,0.0416,0.0176,0.0019,-0.0075,-0.015,0.0429,0.043,0.043,0.043,0,0.0252,0.028,0.0319,0.0406,0.0467,0.0544,0.0619,0.07,0.0783,0.0938,0.1174,0.1314,0.1276,0.1206,0.0983,0.0842,0.0339,0.0522,0.0285,0.0025,-0.0093,-0.0193,0.0333,0.0433,0.0432,0.0432,0.0432,0.0432,0.0283,0.0319,0.0387,0.0467,0.0554,0.0684,0.0789,0.0943,0.1145,0.147,0.1521,0.1841,0.1549,0.129,0.1004,0.0399,0.0416,0.02,0.0074,0.0011,-0.0111,0.0424,0.049,0.049,0.049,0.049,0.049,0,0.0321,0.0361,0.0443,0.0558,0.0679,0.0713,0.0911,0.1096,0.1425,0.1794,0.209,0.2165,0.1774,0.1265,0.0462,0.0028,-0.0164,-0.0237,-0.0408,-0.0453,0.004,-0.0006,-0.0058,-0.0058,-0.0058,-0.0058,-0.0057,-0.0057,0.0346,0.0417,0.0454,0.0642,0.0745,0.0962,0.1106,0.1448,0.1765,0.2307,0.2585,0.2747,0.2284,0.0776,-0.0243,-0.048,-0.0824,-0.0874,-0.1019,-0.0754,-0.0724,-0.0697,-0.0773,-0.0985,-0.0987,-0.1467,-0.1472,-0.1476]}],[{"header":{"parameterUnit":"m.s-1","parameterCategory":2,"la1":30.2991,"la2":30.254,"lo1":-89.0895,"lo2":-89.0444,"dy":0.0017,"dx":0.0017,"nx":28,"ny":28,"refTime":"2025-08-02T21:00:00:Z","depth":"2","parameterNumber":2,"parameterNumberName":"U-component_of_CURRENTS"},"data":[0,0,0,0,0,0,0,0,0,0,0,0,0,0,0,0,0,0,0,0,0,0,0,0,0,0,0,0,0,0,0,0,0,0,0,0,0,0,0,0,0,0,0,0,0,0,0,0,0,0,0,0,0,0,0,0,0,0,0.292,0.292,0,0.2977,0.2978,0.2979,0.3041,0.3041,0.3042,0.3043,0.3009,0.3007,0.3006,0,0,0,0,0,0,0,0,0,0,0,0,0,0.287,0.287,0.292,0.292,0.2921,0.2977,0.2978,0.2979,0.304,0.3041,0.3042,0.3043,0.301,0.3008,0.3006,0,0,0,0,0,0,0,0,0,0,0,0,0,0.2906,0.2871,0.2919,0.2958,0.2962,0.2977,0.2978,0.2979,0.304,0.3041,0.3043,0.3044,0.301,0.3008,0.3005,0.2965,0,0,0.2998,0.2996,0,0,0,0,0,0,0,0,0.2904,0.2908,0.2952,0.2955,0.296,0.3002,0.2948,0.2969,0.304,0.3011,0.3043,0.3044,0.2997,0.2996,0.3006,0.2963,0.2962,0.2997,0.2996,0.2995,0.2994,0,0,0,0,0,0,0,0.2901,0.2906,0.2943,0.2952,0.2957,0.2975,0.2981,0.2953,0.2995,0.3014,0.3018,0.3023,0.2999,0.3008,0.3005,0.2961,0.2997,0.2995,0.2994,0.2993,0.3141,0.3146,0,0,0,0,0,0,0.2892,0.2903,0.2941,0.2945,0.2934,0.2975,0.2982,0.2988,0.2997,0.3001,0.3022,0.3026,0.3012,0.3008,0.3004,0.3073,0.2995,0.2992,0.2991,0.3135,0.3142,0.3148,0,0,0,0,0,0,0.289,0.2894,0.2939,0.2925,0.2932,0.2974,0.298,0.2988,0.3019,0.3005,0.3007,0.3047,0.3013,0.3008,0.3073,0.3067,0.2991,0.2989,0.3129,0.3137,0.3145,0.3135,0,0,0,0,0,0,0.2889,0.2894,0.2886,0.2924,0.2932,0.2984,0.2979,0.2989,0.3019,0.3025,0.3026,0.3023,0.3013,0.3078,0.3071,0.3062,0.2987,0.3122,0.3133,0.3142,0.3128,0.3141,0.3153,0,0,0,0,0,0.2887,0.2861,0.2885,0.2889,0.2923,0.2986,0.2993,0.3026,0.3019,0.3054,0.3095,0.3025,0.3138,0.3081,0.3071,0.306,0.3117,0.313,0.3141,0.3122,0.3139,0.3152,0,0,0,0,0,0,0.2806,0.2866,0.2893,0.288,0.2951,0.2997,0.3001,0.3032,0.3085,0.309,0.3078,0.3081,0.3144,0.3135,0.3072,0.3156,0.312,0.3131,0.311,0.3124,0.3137,0.3183,0.2985,0,0,0,0,0,0.2792,0.2825,0.2879,0.2888,0.2903,0.2957,0.2977,0.3024,0.3074,0.3098,0.3105,0.3138,0.3182,0.3182,0.3223,0.3234,0.3265,0.3241,0.3253,0.3263,0.3309,0.3381,0.3401,0.3188,0.3188,0.3188,0,0,0.2771,0.2806,0.2825,0.2881,0.2917,0.2946,0.2974,0.3027,0.3075,0.308,0.3131,0.3176,0.3211,0.3265,0.3287,0.3247,0.3342,0.3278,0.3284,0.3327,0.3395,0.3415,0.3432,0.3196,0.3195,0.3193,0,0,0.2758,0.2769,0.2796,0.2854,0.2929,0.295,0.297,0.3039,0.3091,0.3174,0.3202,0.3266,0.3305,0.3335,0.3351,0.3457,0.3423,0.3471,0.3523,0.3589,0.3605,0.362,0.3664,0.3683,0.345,0.345,0.345,0,0.2734,0.2777,0.2816,0.2858,0.2908,0.2947,0.2999,0.3035,0.3135,0.3198,0.3206,0.3342,0.3338,0.3411,0.348,0.3467,0.3525,0.3431,0.3596,0.3612,0.3627,0.3669,0.3689,0.3451,0.345,0.345,0.345,0,0.2743,0.2796,0.281,0.288,0.2926,0.2988,0.3046,0.3095,0.3147,0.3218,0.3351,0.3398,0.3483,0.3485,0.3514,0.3622,0.3635,0.3607,0.3529,0.3646,0.3685,0.3706,0.3452,0.3452,0.3451,0.3451,0,0,0.2713,0.2801,0.2835,0.2869,0.2967,0.2993,0.3063,0.3162,0.3205,0.3317,0.3413,0.3518,0.357,0.3606,0.3623,0.369,0.3815,0.3718,0.3721,0.3713,0.3986,0.385,0.3859,0.3825,0.383,0.3833,0.3959,0,0.2745,0.2812,0.2878,0.2949,0.297,0.3052,0.3107,0.3202,0.3288,0.3371,0.347,0.3568,0.3599,0.3649,0.3726,0.3809,0.3881,0.3785,0.3923,0.3927,0.3749,0.3883,0.3573,0.3649,0.3979,0.3983,0.3985,0,0.2794,0.2815,0.2887,0.2982,0.3003,0.3045,0.3145,0.3221,0.3351,0.3438,0.3563,0.3639,0.3772,0.3768,0.3964,0.3919,0.3991,0.404,0.4043,0.3945,0.3832,0.3601,0.3675,0.4021,0.4018,0.4015,0.4013,0,0.2767,0.2868,0.2912,0.2947,0.3007,0.3073,0.3136,0.3261,0.3346,0.3496,0.3585,0.3725,0.3839,0.3947,0.4061,0.4048,0.426,0.4209,0.4152,0.414,0.3921,0.3882,0.4372,0.4372,0.4371,0.4371,0.4371,0,0.2806,0.2839,0.289,0.2901,0.294,0.3042,0.3139,0.3217,0.3371,0.3476,0.3628,0.3731,0.392,0.4044,0.4102,0.4193,0.4282,0.4215,0.4185,0.3908,0.3869,0.423,0.4212,0.4376,0.4375,0.4374,0.4373,0,0.277,0.2821,0.2841,0.2906,0.2925,0.2964,0.3129,0.3183,0.3365,0.3506,0.3575,0.3809,0.399,0.4105,0.4284,0.4256,0.4314,0.4319,0.3973,0.3901,0.4144,0.4125,0.4282,0.4279,0.4276,0.4274,0.4272,0,0.2719,0.273,0.281,0.2822,0.2853,0.2931,0.2976,0.3149,0.3237,0.3531,0.3585,0.3847,0.3956,0.4138,0.4151,0.4193,0.4308,0.393,0.3837,0.4192,0.4147,0.4132,0.4117,0.3541,0.3534,0.3527,0.3522,0,0.2578,0.2654,0.2673,0.2747,0.2786,0.2826,0.2942,0.299,0.3209,0.3336,0.353,0.3647,0.3868,0.3797,0.3876,0.3849,0.3881,0.3802,0.429,0.3596,0.3498,0.3451,0.3461,0.3465,0.3471,0.3475,0.3478,0.3481,0.2479,0.2503,0.2603,0.2655,0.2704,0.2746,0.2741,0.2857,0.2953,0.3118,0.3329,0.3416,0.3517,0.3487,0.3389,0.3345,0.3619,0.3475,0.3493,0.3519,0.3394,0.3296,0.3202,0.3206,0.3209,0.3212,0.3215,0,0.2406,0.2494,0.2501,0.2574,0.2601,0.2691,0.2706,0.266,0.2692,0.2881,0.3009,0.2854,0.2836,0.2941,0.2786,0.278,0.2734,0.268,0.2605,0.2666,0.2718,0.255,0.2135,0.2132,0.2128,0.2125,0,0,0.2379,0.2371,0.2383,0.2429,0.252,0.2469,0.2456,0.2379,0.2423,0.242,0.2473,0.2731,0.2863,0.247,0.2421,0.2255,0.2433,0.2164,0.304,0.3014,0.3062,0.3198,0.3011,0,0,0,0,0]},{"header":{"parameterUnit":"m.s-1","parameterCategory":2,"la1":30.2991,"la2":30.254,"lo1":-89.0895,"lo2":-89.0444,"dy":0.0017,"dx":0.0017,"nx":28,"ny":28,"refTime":"2025-08-02T21:00:00:Z","depth":"2","parameterNumber":3,"parameterNumberName":"V-component_of_CURRENTS"},"data":[0,0,0,0,0,0,0,0,0,0,0,0,0,0,0,0,0,0,0,0,0,0,0,0,0,0,0,0,0,0,0,0,0,0,0,0,0,0,0,0,0,0,0,0,0,0,0,0,0,0,0,0,0,0,0,0,0,0,0.0114,0.0115,0,0.0128,0.0128,0.0128,0.0068,0.0067,0.0066,0.0064,-0.0018,-0.0018,-0.0019,0,0,0,0,0,0,0,0,0,0,0,0,0,0.0076,0.0077,0.0114,0.0115,0.0115,0.0128,0.0128,0.0128,0.0069,0.0067,0.0065,0.0064,-0.0017,-0.0018,-0.0019,0,0,0,0,0,0,0,0,0,0,0,0,0,0.0088,0.0077,0.0114,0.009,0.0088,0.0128,0.0128,0.0128,0.0069,0.0067,0.0065,0.0063,-0.0017,-0.0018,-0.0019,0.0014,0,0,-0.0023,-0.0024,0,0,0,0,0,0,0,0,0.0088,0.0089,0.0093,0.0092,0.009,0.0098,0.0085,0.0086,0.007,0.0072,0.0064,0.0062,0.0016,0.0012,0.0015,0.0011,0.0007,-0.0024,-0.0024,-0.0025,-0.0025,0,0,0,0,0,0,0,0.0087,0.0089,0.0116,0.0094,0.0092,0.0093,0.0091,0.0085,0.0051,0.0072,0.0069,0.0077,0.0014,0.0017,0.0013,0.0006,-0.0024,-0.0025,-0.0026,-0.0026,-0.0088,-0.0089,0,0,0,0,0,0,0.0093,0.0088,0.0115,0.0117,0.0088,0.0095,0.0093,0.0094,0.0053,0.0047,0.0079,0.0074,0.002,0.0014,0.0009,0.0023,-0.0025,-0.0026,-0.0027,-0.0087,-0.0088,-0.0089,0,0,0,0,0,0,0.0092,0.0095,0.0115,0.0106,0.0109,0.0098,0.01,0.0096,0.0101,0.006,0.005,0.0088,0.0018,0.0011,-0.0025,0.002,-0.0027,-0.0028,-0.0086,-0.0087,-0.0088,0.0066,0,0,0,0,0,0,0.0091,0.0095,0.01,0.0106,0.011,0.0154,0.0102,0.0098,0.0111,0.0105,0.0065,0.0055,0.0016,-0.0023,-0.0026,0.0018,-0.0029,-0.0085,-0.0087,-0.0088,0.0062,0.007,0.0077,0,0,0,0,0,0.0089,0.0119,0.01,0.0104,0.0116,0.0157,0.0159,0.0141,0.0114,0.0134,0.007,0.0057,-0.0036,-0.0024,-0.0028,0.0017,-0.0084,-0.0086,-0.0088,0.0059,0.0069,0.0077,0,0,0,0,0,0,0.0119,0.0116,0.0095,0.0123,0.0142,0.0148,0.0172,0.0157,0.0129,0.0111,0.0055,0.0042,0.0021,-0.0015,-0.0001,-0.0018,-0.0065,-0.0067,0.0048,0.0057,0.0064,0.0086,-0.003,0,0,0,0,0,0.0126,0.013,0.0142,0.0163,0.0179,0.0175,0.0189,0.0178,0.0159,0.0146,0.011,0.0055,0.0015,0.0007,-0.0039,-0.0025,-0.0071,-0.001,-0.0002,0.0005,0.0012,-0.003,-0.0023,-0.0095,-0.0095,-0.0095,0,0,0.0143,0.0141,0.0145,0.0167,0.0178,0.023,0.0178,0.0212,0.0243,0.0142,0.0155,0.0083,0.0014,0.0007,-0.0002,-0.0012,-0.0002,0.0002,0.001,0.0013,-0.0031,-0.0023,-0.0016,-0.0097,-0.0096,-0.0096,0,0,0.0209,0.0184,0.0225,0.0248,0.0273,0.0272,0.0288,0.0297,0.0288,0.0286,0.0207,0.0156,0.0114,0.0076,0.005,0.0074,0.0028,0.0055,0.014,0.0101,0.0108,0.0113,0.0072,0.0072,0.0076,0.0077,0.0077,0,0.0232,0.0276,0.025,0.0311,0.0335,0.0301,0.0369,0.0373,0.036,0.0354,0.0301,0.0204,0.0152,0.0144,0.0134,0.0103,0.0058,0.0127,0.0118,0.0122,0.0125,0.008,0.0079,0.0084,0.0083,0.0082,0.0081,0,0.0346,0.0376,0.0412,0.0458,0.0484,0.0533,0.0538,0.0547,0.051,0.0495,0.0456,0.0358,0.0301,0.0277,0.0214,0.0214,0.0167,0.0128,0.0114,0.0143,0.0092,0.0088,0.0094,0.0091,0.0089,0.0087,0,0,0.0388,0.0475,0.0478,0.0533,0.0558,0.0605,0.0644,0.0675,0.0712,0.0646,0.0672,0.0565,0.049,0.0449,0.0367,0.0327,0.0308,0.0243,0.0237,0.0235,0.0213,0.0171,0.0161,0.0268,0.0268,0.0268,0.0173,0,0.0479,0.0614,0.0619,0.0739,0.0811,0.0787,0.0835,0.0846,0.0821,0.0837,0.0725,0.0707,0.0569,0.0542,0.0476,0.0347,0.0301,0.0336,0.0153,0.0148,0.0136,0.0157,0.0175,0.0091,0.0169,0.0168,0.0168,0,0.0574,0.0651,0.0786,0.0883,0.0913,0.0974,0.1027,0.1072,0.1065,0.1038,0.0976,0.0888,0.0808,0.0691,0.0493,0.0517,0.0374,0.0266,0.0259,0.0164,0.0099,0.0066,0.0079,0.016,0.0161,0.0161,0.0162,0,0.0612,0.0754,0.0862,0.09,0.1011,0.106,0.1108,0.1126,0.1184,0.1175,0.1184,0.106,0.101,0.0812,0.0558,0.053,0.034,0.0284,0.0111,0.0106,0.0056,0.0047,0.0153,0.0153,0.0153,0.0154,0.0154,0,0.0684,0.0775,0.0903,0.0966,0.1114,0.1148,0.1273,0.1298,0.1345,0.1428,0.1293,0.1301,0.1034,0.0881,0.0632,0.036,0.0394,0.0129,0.0083,0.0107,0.0104,0.0105,0.0101,0.015,0.0151,0.0152,0.0152,0,0.0714,0.0789,0.0937,0.1077,0.114,0.1245,0.1405,0.1496,0.1507,0.1607,0.1612,0.1499,0.1289,0.1,0.0702,0.0475,0.0217,0.0111,0.0154,0.0114,-0.0011,-0.0006,-0.0079,-0.0081,-0.0083,-0.0085,-0.0086,0,0.0774,0.0839,0.1017,0.113,0.1208,0.1372,0.1488,0.157,0.1668,0.1721,0.1775,0.1625,0.1502,0.1042,0.0641,0.0229,0.0186,0.0002,-0.0052,0.0005,-0.0033,-0.0025,-0.0019,-0.0061,-0.0062,-0.0062,-0.0063,0,0.0876,0.0901,0.1007,0.1216,0.1375,0.1565,0.1731,0.1834,0.1929,0.1974,0.2005,0.1917,0.1489,0.1074,0.0539,0.0263,0.0067,-0.0029,0.0032,-0.0002,0.0015,-0.0019,-0.0012,-0.007,-0.007,-0.0069,-0.0069,-0.0068,0.0939,0.1011,0.1128,0.1327,0.1514,0.173,0.1875,0.2014,0.2156,0.2212,0.215,0.1983,0.1572,0.0835,0.0416,-0.0012,-0.001,-0.0164,-0.0158,-0.0153,-0.0131,-0.0118,-0.0224,-0.0224,-0.0225,-0.0225,-0.0225,0,0.103,0.1086,0.126,0.1485,0.1689,0.1769,0.2026,0.2127,0.2264,0.2268,0.2231,0.1784,0.1331,0.0866,0.0219,-0.0161,-0.0182,-0.0268,-0.0205,-0.0196,-0.0189,-0.0167,-0.0271,-0.0272,-0.0273,-0.0274,0,0,0.1078,0.1217,0.1283,0.1599,0.1756,0.1995,0.2131,0.2241,0.229,0.2241,0.2123,0.195,0.1411,0.0945,0.0438,0.0088,0.0034,0.0014,0.0085,0.0227,0.0239,-0.0104,-0.0058,0,0,0,0,0]}],[{"header":{"parameterUnit":"m.s-1","parameterCategory":2,"la1":30.2991,"la2":30.254,"lo1":-89.0895,"lo2":-89.0444,"dy":0.0017,"dx":0.0017,"nx":28,"ny":28,"refTime":"2025-08-02T21:00:00:Z","depth":"4","parameterNumber":2,"parameterNumberName":"U-component_of_CURRENTS"},"data":[0,0,0,0,0,0,0,0,0,0,0,0,0,0,0,0,0,0,0,0,0,0,0,0,0,0,0,0,0,0,0,0,0,0,0,0,0,0,0,0,0,0,0,0,0,0,0,0,0,0,0,0,0,0,0,0,0,0,0.1484,0.1485,0,0.1546,0.1547,0.1547,0.1621,0.1622,0.1622,0.1623,0.1646,0.1645,0.1645,0,0,0,0,0,0,0,0,0,0,0,0,0,0.1443,0.1444,0.1484,0.1485,0.1485,0.1546,0.1547,0.1548,0.162,0.1622,0.1623,0.1624,0.1646,0.1645,0.1645,0,0,0,0,0,0,0,0,0,0,0,0,0,0.148,0.1444,0.1484,0.1528,0.1532,0.1545,0.1547,0.1548,0.162,0.1622,0.1623,0.1624,0.1646,0.1645,0.1645,0.1613,0,0,0.1643,0.1643,0,0,0,0,0,0,0,0,0.1478,0.1482,0.1521,0.1525,0.153,0.1576,0.1541,0.1567,0.162,0.1588,0.1623,0.1625,0.1616,0.1618,0.163,0.1614,0.1615,0.1643,0.1643,0.1643,0.1643,0,0,0,0,0,0,0,0.1475,0.1479,0.151,0.1521,0.1527,0.1549,0.1556,0.1546,0.1594,0.1591,0.1596,0.16,0.1619,0.163,0.1631,0.1615,0.1643,0.1643,0.1643,0.1643,0.1721,0.1724,0,0,0,0,0,0,0.1462,0.1477,0.1508,0.1512,0.1505,0.1548,0.1556,0.1561,0.1595,0.1602,0.1599,0.1603,0.163,0.1631,0.1631,0.1626,0.1643,0.1643,0.1642,0.1719,0.1722,0.1724,0,0,0,0,0,0,0.1461,0.1464,0.1506,0.1495,0.1501,0.1547,0.1552,0.1561,0.1616,0.1601,0.1608,0.1649,0.1631,0.1632,0.1694,0.1626,0.1642,0.1642,0.1716,0.172,0.1723,0.1595,0,0,0,0,0,0,0.1459,0.1463,0.1471,0.1494,0.1501,0.152,0.1551,0.1561,0.1612,0.162,0.1644,0.1646,0.1632,0.1695,0.1693,0.1626,0.1642,0.1713,0.1718,0.1722,0.1596,0.1594,0.1592,0,0,0,0,0,0.1458,0.1437,0.1471,0.1475,0.1507,0.1519,0.1526,0.1564,0.1613,0.1624,0.1687,0.1648,0.1721,0.1697,0.1695,0.1625,0.1711,0.1716,0.1722,0.1597,0.1594,0.1592,0,0,0,0,0,0,0.1421,0.1443,0.148,0.1471,0.1505,0.1531,0.1538,0.1588,0.1646,0.1663,0.1685,0.169,0.1722,0.1727,0.1701,0.1678,0.1705,0.171,0.1612,0.1609,0.1606,0.1745,0.1641,0,0,0,0,0,0.1418,0.1419,0.1451,0.1455,0.1465,0.1521,0.154,0.1569,0.1615,0.1645,0.1687,0.1724,0.1733,0.1721,0.1752,0.1726,0.1804,0.169,0.1687,0.1684,0.1806,0.1848,0.1859,0.1742,0.1742,0.1742,0,0,0.1412,0.1423,0.1429,0.145,0.148,0.151,0.1536,0.1557,0.1604,0.1632,0.1724,0.1736,0.1747,0.1734,0.174,0.1721,0.1748,0.1691,0.1686,0.1815,0.1855,0.1866,0.1875,0.1746,0.1745,0.1744,0,0,0.1388,0.1406,0.1403,0.1429,0.1464,0.1501,0.1522,0.1579,0.1619,0.1697,0.1724,0.1769,0.1775,0.1777,0.177,0.1797,0.1766,0.173,0.1773,0.1804,0.1814,0.1824,0.1874,0.1889,0.1684,0.1684,0.1684,0,0.1389,0.1388,0.1407,0.1417,0.1447,0.1511,0.1537,0.1579,0.1667,0.1707,0.1728,0.1829,0.1825,0.1817,0.1822,0.1788,0.1801,0.1743,0.1796,0.1808,0.182,0.187,0.1889,0.1678,0.1679,0.168,0.168,0,0.1364,0.1384,0.1379,0.1433,0.1469,0.1485,0.1551,0.1614,0.1689,0.1742,0.1815,0.1847,0.1918,0.1851,0.1845,0.1875,0.1852,0.1802,0.1783,0.1823,0.1874,0.1895,0.1671,0.1673,0.1674,0.1676,0,0,0.1331,0.1357,0.1368,0.14,0.1473,0.1501,0.158,0.1658,0.1738,0.1808,0.1903,0.1928,0.1971,0.1986,0.1931,0.1948,0.2,0.1899,0.1902,0.1921,0.2063,0.1899,0.1907,0.1892,0.1896,0.19,0.2038,0,0.1323,0.1339,0.1362,0.1427,0.1452,0.153,0.1609,0.1694,0.1782,0.1889,0.1922,0.2004,0.1992,0.2001,0.2024,0.2037,0.2064,0.1972,0.2059,0.2067,0.1887,0.193,0.1915,0.2055,0.206,0.2063,0.2066,0,0.1306,0.1321,0.1361,0.1438,0.1458,0.1523,0.167,0.1739,0.1876,0.1946,0.2041,0.2086,0.2176,0.2143,0.2252,0.2164,0.2168,0.2164,0.2165,0.2113,0.1945,0.2033,0.2107,0.2103,0.21,0.2098,0.2095,0,0.1283,0.1329,0.1365,0.139,0.1488,0.1544,0.1622,0.1769,0.1842,0.2004,0.209,0.219,0.2271,0.2311,0.2353,0.2291,0.2453,0.2347,0.2219,0.2206,0.2366,0.2355,0.2467,0.2467,0.2467,0.2466,0.2466,0,0.1255,0.1283,0.1364,0.1381,0.1452,0.1543,0.165,0.1751,0.1907,0.2,0.2126,0.2216,0.2319,0.2397,0.2404,0.2402,0.2503,0.2315,0.225,0.23,0.2281,0.2376,0.2364,0.2471,0.247,0.2469,0.2468,0,0.1203,0.1255,0.1292,0.1394,0.1437,0.1495,0.1641,0.1718,0.1896,0.203,0.2089,0.2276,0.2391,0.2462,0.2547,0.2465,0.2472,0.2434,0.2542,0.2468,0.2195,0.2175,0.233,0.2326,0.2323,0.232,0.2317,0,0.115,0.1175,0.1283,0.131,0.1352,0.1451,0.1521,0.1697,0.1786,0.2041,0.2092,0.2275,0.2371,0.2401,0.2468,0.2493,0.244,0.2431,0.2308,0.2271,0.2192,0.2178,0.2163,0.2311,0.2311,0.231,0.2309,0,0.1048,0.1117,0.1152,0.1217,0.1285,0.1346,0.1465,0.1531,0.1745,0.1916,0.2062,0.2134,0.2257,0.2322,0.236,0.2355,0.243,0.2393,0.2398,0.2283,0.2249,0.2171,0.2161,0.2296,0.2298,0.2299,0.23,0,0.0966,0.0976,0.1047,0.1098,0.1171,0.1221,0.1303,0.1425,0.1544,0.1846,0.1883,0.2079,0.2245,0.2252,0.2281,0.2278,0.2228,0.2126,0.2145,0.2159,0.2031,0.1958,0.1921,0,0,0,0,0,0.0872,0.0879,0.0913,0.0963,0.1037,0.1088,0.1251,0.1353,0.1581,0.1639,0.1767,0.1875,0.1966,0.2061,0.2021,0.2171,0.221,0.211,0.2095,0.2227,0.2242,0.2101,0,0,0,0,0,0,0.0802,0.0827,0.0864,0.0846,0.0864,0.0934,0.1039,0.1198,0.1257,0.1497,0.1568,0.173,0.1849,0.1962,0.1973,0.1996,0.1941,0.2228,0.2222,0.2219,0.2232,0.2244,0.2104,0,0,0,0,0]},{"header":{"parameterUnit":"m.s-1","parameterCategory":2,"la1":30.2991,"la2":30.254,"lo1":-89.0895,"lo2":-89.0444,"dy":0.0017,"dx":0.0017,"nx":28,"ny":28,"refTime":"2025-08-02T21:00:00:Z","depth":"4","parameterNumber":3,"parameterNumberName":"V-component_of_CURRENTS"},"data":[0,0,0,0,0,0,0,0,0,0,0,0,0,0,0,0,0,0,0,0,0,0,0,0,0,0,0,0,0,0,0,0,0,0,0,0,0,0,0,0,0,0,0,0,0,0,0,0,0,0,0,0,0,0,0,0,0,0,0.0173,0.0173,0,0.019,0.019,0.019,0.0161,0.016,0.0159,0.0158,0.0109,0.0108,0.0108,0,0,0,0,0,0,0,0,0,0,0,0,0,0.0128,0.0129,0.0173,0.0173,0.0174,0.019,0.019,0.019,0.0161,0.016,0.0159,0.0158,0.0109,0.0108,0.0108,0,0,0,0,0,0,0,0,0,0,0,0,0,0.0145,0.0129,0.0173,0.0162,0.0162,0.019,0.019,0.019,0.0161,0.016,0.0159,0.0158,0.0109,0.0108,0.0108,0.0128,0,0,0.0105,0.0105,0,0,0,0,0,0,0,0,0.0144,0.0147,0.0163,0.0163,0.0162,0.0173,0.0156,0.0167,0.0162,0.016,0.0158,0.0157,0.0126,0.0124,0.0129,0.0126,0.0123,0.0105,0.0105,0.0104,0.0104,0,0,0,0,0,0,0,0.0143,0.0146,0.0178,0.0164,0.0163,0.0161,0.0162,0.0158,0.0147,0.016,0.0158,0.0163,0.0125,0.013,0.0127,0.0123,0.0105,0.0104,0.0104,0.0103,0.008,0.008,0,0,0,0,0,0,0.0145,0.0145,0.0177,0.0179,0.0152,0.0163,0.0164,0.017,0.0149,0.0145,0.0164,0.0162,0.0132,0.0128,0.0125,0.0138,0.0104,0.0103,0.0103,0.008,0.008,0.008,0,0,0,0,0,0,0.0144,0.0148,0.0177,0.0163,0.0167,0.0165,0.0172,0.0171,0.0183,0.0153,0.0148,0.0178,0.013,0.0126,0.0112,0.0136,0.0103,0.0102,0.008,0.008,0.008,0.017,0,0,0,0,0,0,0.0143,0.0148,0.0154,0.0164,0.0168,0.0212,0.0174,0.0172,0.0188,0.0185,0.0163,0.0157,0.0129,0.0114,0.0112,0.0134,0.0102,0.008,0.008,0.008,0.0167,0.0173,0.0178,0,0,0,0,0,0.0141,0.0168,0.0155,0.0159,0.0177,0.0214,0.0217,0.0209,0.019,0.0212,0.0173,0.0158,0.011,0.0113,0.0111,0.0134,0.008,0.008,0.008,0.0165,0.0172,0.0178,0,0,0,0,0,0,0.0163,0.0168,0.0153,0.0181,0.02,0.021,0.023,0.0223,0.0213,0.0204,0.0164,0.0156,0.0152,0.0125,0.013,0.0121,0.0091,0.009,0.0156,0.0162,0.0168,0.0184,0.0101,0,0,0,0,0,0.0169,0.0183,0.0192,0.0217,0.0227,0.0228,0.0241,0.0241,0.0235,0.0231,0.0208,0.0174,0.015,0.0141,0.012,0.0125,0.0074,0.0132,0.0138,0.0142,0.015,0.0076,0.0076,0.0079,0.0079,0.0079,0,0,0.0185,0.0189,0.0198,0.0221,0.0231,0.0263,0.0234,0.0268,0.0287,0.0226,0.0237,0.02,0.0154,0.0151,0.0147,0.0132,0.0114,0.0142,0.0147,0.0152,0.0076,0.0076,0.0075,0.0078,0.0078,0.0078,0,0,0.0238,0.023,0.0261,0.028,0.0303,0.0302,0.0316,0.033,0.0327,0.0336,0.0283,0.0256,0.0236,0.02,0.0179,0.0201,0.0146,0.0194,0.024,0.0168,0.0168,0.0167,0.0106,0.0098,0.0197,0.0197,0.0197,0,0.0254,0.0291,0.0281,0.032,0.0338,0.0323,0.0367,0.037,0.0374,0.0369,0.035,0.0291,0.0259,0.0234,0.0237,0.0217,0.0164,0.0226,0.0177,0.0174,0.0172,0.0109,0.01,0.0201,0.0201,0.02,0.02,0,0.0332,0.0359,0.0386,0.0413,0.0434,0.0475,0.0473,0.0483,0.0468,0.0459,0.0439,0.0382,0.0344,0.0329,0.0294,0.0262,0.0227,0.0195,0.0167,0.0177,0.011,0.0099,0.0207,0.0206,0.0205,0.0203,0,0,0.0368,0.0426,0.0434,0.046,0.0485,0.0514,0.0536,0.0551,0.0562,0.0541,0.0537,0.049,0.0451,0.0422,0.0367,0.0307,0.0247,0.0251,0.0245,0.0203,0.0088,0.0077,0.0063,0.0201,0.02,0.0198,0.0051,0,0.0427,0.0514,0.0522,0.0593,0.0634,0.0621,0.0645,0.065,0.0635,0.0625,0.0556,0.0537,0.0488,0.0468,0.0402,0.0282,0.022,0.029,0.0074,0.0068,0.0066,0.0051,0.0194,0.0043,0.004,0.0038,0.0036,0,0.0495,0.054,0.063,0.0676,0.0693,0.0733,0.0752,0.0775,0.0747,0.0732,0.0689,0.0628,0.0548,0.0499,0.0311,0.0355,0.0237,0.014,0.0131,0.0082,0.0035,0.0025,0.0015,0.0017,0.0019,0.002,0.0021,0,0.0525,0.0608,0.0679,0.0702,0.0757,0.0791,0.0815,0.0815,0.0839,0.08,0.0796,0.0687,0.0632,0.0472,0.0284,0.029,0.0059,0.0038,-0.0084,-0.0086,-0.007,-0.0067,-0.0098,-0.0098,-0.0098,-0.0097,-0.0097,0,0.0575,0.063,0.0709,0.0749,0.0832,0.0849,0.0919,0.0922,0.093,0.0951,0.0862,0.0827,0.0619,0.0464,0.0291,0.007,0.006,-0.0078,-0.0127,-0.0029,-0.002,-0.0078,-0.0074,-0.0103,-0.0102,-0.0101,-0.01,0,0.0599,0.0651,0.0736,0.0818,0.0856,0.0916,0.1007,0.1052,0.1047,0.1063,0.1054,0.0923,0.0717,0.0497,0.0218,0.0088,-0.0128,-0.0206,-0.008,-0.0119,-0.0226,-0.0215,-0.0349,-0.0351,-0.0352,-0.0353,-0.0354,0,0.0623,0.0675,0.0792,0.0855,0.0906,0.1002,0.1075,0.1114,0.1154,0.1112,0.1112,0.0937,0.0816,0.0422,0.0185,-0.0148,-0.0192,-0.0293,-0.0257,-0.0218,-0.0253,-0.024,-0.0228,-0.0357,-0.0357,-0.0357,-0.0358,0,0.0658,0.0704,0.0771,0.0903,0.1004,0.1108,0.1203,0.1238,0.1261,0.1258,0.1147,0.0949,0.071,0.0413,0.0152,-0.0086,-0.0221,-0.0309,-0.0307,-0.0274,-0.0229,-0.0259,-0.0246,-0.0363,-0.0362,-0.0361,-0.0361,0,0.068,0.0733,0.0828,0.0937,0.106,0.1166,0.1221,0.1257,0.129,0.1241,0.1192,0.0942,0.0798,0.0441,0.0196,-0.0035,-0.0087,-0.0143,-0.0151,-0.0149,-0.0044,0.0045,-0.0049,0,0,0,0,0,0.07,0.0757,0.0857,0.0981,0.1099,0.1174,0.1281,0.1322,0.1339,0.1275,0.1238,0.1012,0.0644,0.0479,0.0244,0.0165,-0.0128,-0.0116,-0.0197,-0.039,-0.0384,-0.0297,0,0,0,0,0,0,0.0713,0.0804,0.0848,0.0985,0.1075,0.1217,0.1285,0.1311,0.1268,0.1243,0.1046,0.0959,0.0597,0.0772,0.0238,0.0168,0.0087,-0.0285,-0.029,-0.0393,-0.0388,-0.0384,-0.0292,0,0,0,0,0]}]]